Location: Budapest
(47.4979°N, 19.0402°E)
Time: 23:06:38
(UTC+01:00)

ISS - Pass Details

Date: 30 September 2020
Orbit: 417 x 420 km, 51.6° (Epoch: 26 October)

Event Time Altitude Azimuth Distance (km) Brightness Sun altitude
Rises 20:18:16 0° 294° (WNW) 2,370 1.7 -19.8°
Reaches altitude 10° 20:20:22 10° 295° (WNW) 1,505 0.2 -20.1°
Enters shadow 20:23:35 77° 332° (NNW) 436 -3.7 -20.6°
